Middletown, RI

10:33 AM EST on December 06, 2016 (GMT -0500)
Newport State

Weather History for KUUU - January, 2014

Change the Weather History Date:

Sunday, January 5, 2014

  Actual Average Record
Temperature  
Mean Temperature 32 °F -  
Max Temperature 45 °F 40 °F 55 °F (1982)
Min Temperature 19 °F 25 °F -5 °F (1981)
Degree Days  
Heating Degree Days 33    
Moisture  
Dew Point 32 °F    
Average Humidity 86    
Maximum Humidity 97    
Minimum Humidity 63    
Precipitation  
Precipitation 0.01 in - - ()
Sea Level Pressure  
Sea Level Pressure 30.21 in    
Wind  
Wind Speed 5 mph (ESE)    
Max Wind Speed 15 mph    
Max Gust Speed -    
Visibility 6 miles    
Events Fog , Rain    
Averages and records for this station are not official NWS values.
T = Trace of Precipitation, MM = Missing Value Source: NWS Daily Summary

Daily Weather History Graph

Daily Weather History Graph

Search for Another Location

Airport or City:

Trip Planner

Search our weather history database for the weather conditions in past years. The results will help you decide how hot, cold, wet, or windy it might be!

Date:

Astronomy

Jan. 05, 2014 Rise Set
Actual Time 7:11 AM EST 4:29 PM EST
Civil Twilight 6:40 AM EST 5:00 PM EST
Nautical Twilight 6:06 AM EST 5:35 PM EST
Astronomical Twilight 5:32 AM EST 6:08 PM EST
Moon 9:47 AM EST (1/5) 9:58 PM EST (1/5)
Length of Visible Light 10h 20m
Length of Day
9h 17m
Waxing Crescent, 24% of the Moon is Illuminated
Jan 5
Waxing Crescent
Jan 7
First Quarter
Jan 15
Full
Jan 24
Last Quarter
Jan 30
New

Hourly Weather History & Observations

Time (EST) Temp. Windchill Dew Point Humidity Pressure Visibility Wind Dir Wind Speed Gust Speed Precip Events Conditions
12:53 AM 27.0 °F 21.6 °F 21.9 °F 81% 30.30 in 10.0 mi WNW 4.6 mph - N/A   Clear
1:53 AM 27.0 °F 21.6 °F 21.0 °F 78% 30.29 in 10.0 mi WNW 4.6 mph - N/A   Clear
2:29 AM 28.0 °F 22.8 °F 19.9 °F 72% 30.28 in 10.0 mi West 4.6 mph - N/A   Mostly Cloudy
2:53 AM 27.0 °F 20.5 °F 19.0 °F 72% 30.30 in 10.0 mi Variable 5.8 mph - N/A   Mostly Cloudy
3:27 AM 27.0 °F - 17.1 °F 66% 30.29 in 10.0 mi North - - N/A   Scattered Clouds
3:53 AM 27.0 °F 23.0 °F 16.0 °F 63% 30.29 in 10.0 mi Variable 3.5 mph - N/A   Partly Cloudy
4:53 AM 28.0 °F 24.2 °F 17.1 °F 63% 30.29 in 10.0 mi Variable 3.5 mph - N/A   Clear
5:53 AM 27.0 °F - 19.0 °F 72% 30.30 in 10.0 mi Calm Calm - N/A   Clear
6:53 AM 19.0 °F - 15.1 °F 85% 30.32 in 10.0 mi Calm Calm - N/A   Clear
7:53 AM 30.0 °F 26.5 °F 21.9 °F 72% 30.32 in 10.0 mi SW 3.5 mph - N/A   Clear
8:53 AM 34.0 °F 28.8 °F 26.1 °F 73% 30.34 in 10.0 mi Variable 5.8 mph - N/A   Mostly Cloudy
9:53 AM 34.0 °F 31.0 °F 26.1 °F 73% 30.33 in 10.0 mi Variable 3.5 mph - N/A   Overcast
10:13 AM 35.1 °F 32.2 °F 27.0 °F 72% 30.34 in 10.0 mi Variable 3.5 mph - N/A   Overcast
10:53 AM 35.1 °F - 27.0 °F 72% 30.32 in 10.0 mi Calm Calm - N/A   Overcast
11:18 AM 34.0 °F 29.8 °F 26.1 °F 73% 30.30 in 10.0 mi West 4.6 mph - N/A   Overcast
11:53 AM 35.1 °F - 28.0 °F 76% 30.28 in 7.0 mi Calm Calm - 0.00 in Rain Light Rain
12:00 PM 35.1 °F - 28.9 °F 78% 30.28 in 9.0 mi Calm Calm - 0.00 in Rain Light Rain
12:53 PM 35.1 °F - 30.0 °F 82% 30.26 in 4.0 mi Calm Calm - 0.00 in Rain Light Rain
1:26 PM 35.1 °F - 30.9 °F 85% 30.25 in 2.5 mi Calm Calm - 0.00 in   Overcast
1:34 PM 35.1 °F - 32.0 °F 89% 30.25 in 4.0 mi Calm Calm - 0.00 in   Overcast
1:49 PM 35.6 °F - 33.8 °F 93% 30.26 in 2.5 mi Calm Calm - 0.00 in   Overcast
1:53 PM 35.1 °F - 33.1 °F 92% 30.26 in 2.0 mi Calm Calm - 0.00 in Rain Light Rain
1:59 PM 34.0 °F 31.0 °F 32.0 °F 92% 30.25 in 1.8 mi ENE 3.5 mph - 0.00 in Rain Light Rain
2:10 PM 34.0 °F 29.8 °F 33.1 °F 96% 30.25 in 2.5 mi East 4.6 mph - 0.00 in   Overcast
2:20 PM 35.1 °F - 33.1 °F 92% 30.26 in 3.0 mi Calm Calm - 0.00 in Rain Light Rain
2:27 PM 35.1 °F - 33.1 °F 92% 30.25 in 1.8 mi Calm Calm - 0.00 in Rain Light Rain
2:42 PM 35.1 °F 32.2 °F 33.1 °F 92% 30.25 in 3.0 mi East 3.5 mph - 0.00 in   Overcast
2:53 PM 35.1 °F 30.1 °F 33.1 °F 92% 30.25 in 3.0 mi ESE 5.8 mph - 0.00 in   Overcast
3:53 PM 35.1 °F 32.2 °F 34.0 °F 96% 30.23 in 5.0 mi ESE 3.5 mph - N/A   Overcast
4:07 PM 36.0 °F 33.3 °F 35.1 °F 97% 30.22 in 6.0 mi East 3.5 mph - N/A   Overcast
4:19 PM 36.0 °F 31.1 °F 34.0 °F 93% 30.22 in 6.0 mi East 5.8 mph - N/A   Overcast
4:48 PM 35.6 °F 30.7 °F 33.8 °F 93% 30.21 in 7.0 mi East 5.8 mph - N/A   Overcast
4:53 PM 35.1 °F 30.1 °F 34.0 °F 96% 30.21 in 8.0 mi East 5.8 mph - N/A   Overcast
5:53 PM 37.0 °F 31.6 °F 35.1 °F 93% 30.18 in 10.0 mi ESE 6.9 mph - N/A   Mostly Cloudy
6:01 PM 37.9 °F 32.1 °F 36.0 °F 93% 30.17 in 10.0 mi ESE 8.1 mph - N/A   Scattered Clouds
6:53 PM 39.9 °F 35.1 °F 37.9 °F 93% 30.17 in 10.0 mi SE 6.9 mph - N/A   Clear
7:53 PM 42.1 °F 37.1 °F 39.9 °F 92% 30.13 in 8.0 mi ESE 8.1 mph - N/A   Mostly Cloudy
8:17 PM 42.1 °F 36.1 °F 41.0 °F 96% 30.11 in 7.0 mi ESE 10.4 mph - N/A   Mostly Cloudy
8:53 PM 44.1 °F 38.1 °F 42.1 °F 93% 30.09 in 8.0 mi SE 11.5 mph - N/A   Overcast
9:53 PM 43.0 °F 36.8 °F 42.1 °F 97% 30.04 in 4.0 mi SE 11.5 mph - 0.00 in Rain Light Rain
10:22 PM 45.0 °F 38.5 °F 43.0 °F 93% 30.00 in 8.0 mi SE 13.8 mph - 0.00 in   Overcast
10:31 PM 45.0 °F 38.2 °F 43.0 °F 93% 29.99 in 3.0 mi SE 15.0 mph - 0.00 in Rain Light Rain
10:37 PM 45.0 °F 38.5 °F 43.0 °F 93% 29.99 in 2.5 mi SE 13.8 mph - 0.00 in Rain Light Rain
10:46 PM 44.1 °F 37.7 °F 43.0 °F 96% 29.97 in 1.8 mi SE 12.7 mph - 0.01 in Rain Light Rain
10:53 PM 44.1 °F 37.7 °F 43.0 °F 96% 29.97 in 1.5 mi SE 12.7 mph - 0.01 in Rain Light Rain
11:13 PM 44.1 °F 37.4 °F 43.0 °F 96% 29.95 in 0.8 mi SE 13.8 mph - 0.00 in Rain Light Rain
11:53 PM 45.0 °F 38.5 °F 44.1 °F 97% 29.91 in 0.5 mi SE 13.8 mph - 0.00 in Fog Fog